Weather in Novoukolovo

Russia / Belgorod Oblast     51°01′00″N   38°25′23″E
temp.,
°C
wind,
m/s
gust,
m/s
humid.,
%
clouds,
%
prec.,
mm/h
press.,
hPa
HPBL,
m
16 april, fri
fri1600:00+9s348724 0.1 101481
03:00+8sse22872 0.1 101529
06:00+7s37920 0.0 1016167
09:00+11s57640 0.0 1017765
12:00+14s68465 0.0 10161824
15:00+15s6741100 0.0 10162323
18:00+13wsw345398 0.0 1017361
21:00+9sw11661 0.0 101710
17 april, sat
sat1700:00+9ssw116698 0.0 101810
03:00+8ssw2373100 0.1 101785
06:00+7wsw2493100 4.4 1018255
09:00+8wsw1283100 6.0 1017376
12:00+11ssw455730 1.2 10181482
15:00+11sw665585 2.6 10181341
18:00+9sw56649 0.3 1019974
21:00+6ssw368110 0.3 1020147
18 april, sun
sun1800:00+6ssw357945 0.0 1020113
03:00+6ssw268799 0.1 1019216
06:00+5ssw249252 0.1 1020127
09:00+9sw456889 0.1 1020735
12:00+11sw455899 0.3 10191385
15:00+12s355499 0.9 10191225
18:00+12ssw575793 0.6 1018731
21:00+9se3768100 0.6 1019164
19 april, mon
mon1900:00+8se3470100 0.0 101852
03:00+8se396899 0.0 1018225
06:00+8se377199 0.0 1018162
09:00+12se57549 0.0 1017617
12:00+14se4642100 0.0 10162026
15:00+15ese5642100 0.0 10161894
18:00+14se375679 0.0 1014507
21:00+10ese41081100 0.3 1014394
20 april, tue
tue2000:00+11e51178100 0.8 1012650
03:00+10e81478100 0.8 1010774
06:00+9e101893100 5.5 1006773
09:00+9e112193100 13.7 10021227
12:00+12se112089100 4.2 10001301
15:00+12sse8148936 6.6 1000816
18:00+14sse10176417 1.3 10001293
21:00+10sse10187310 1.4 10021203